This is the latest recevied weather packets stored in our database for station/object VE9LJW. If no packets are shown the sender has not sent any weather packets the latest 10 day(s).
| Time | Temp. | Humidity | Pressure | Rain* | Wind** | Luminosity | Snow |
|---|---|---|---|---|---|---|---|
| 1777466670 | 7.78° C | 99% | 1018.7 hPa | 1.27 mm | - | 43 W/m² | - |
| 1777466366 | 7.78° C | 99% | 1018.6 hPa | 0 mm | - | 39 W/m² | - |
| 1777466063 | 7.78° C | 99% | 1018.7 hPa | 0 mm | - | 40 W/m² | - |
| 1777465760 | 7.78° C | 99% | 1018.7 hPa | 0.51 mm | - | 77 W/m² | - |
| 1777465455 | 7.78° C | 98% | 1018.7 hPa | 0.51 mm | - | 135 W/m² | - |
| 1777465154 | 7.78° C | 98% | 1018.8 hPa | 0 mm | - | 115 W/m² | - |
| 1777464849 | 7.78° C | 99% | 1018.8 hPa | 0 mm | - | 126 W/m² | - |
| 1777464545 | 7.22° C | 98% | 1019 hPa | 0.51 mm | - | 147 W/m² | - |
| 1777464241 | 7.22° C | 98% | 1018.8 hPa | 0.51 mm | - | 137 W/m² | - |
| 1777463937 | 7.78° C | 99% | 1018.8 hPa | 0 mm | - | 119 W/m² | - |
| 1777463632 | 7.22° C | 99% | 1018.8 hPa | 0 mm | - | 115 W/m² | - |
| 1777463327 | 7.22° C | 98% | 1019.2 hPa | 0 mm | - | 88 W/m² | - |
| 1777463024 | 7.22° C | 99% | 1019.1 hPa | 0.51 mm | - | 75 W/m² | - |
| 1777462719 | 6.67° C | 99% | 1019.3 hPa | 1.27 mm | - | 79 W/m² | - |
| 1777462415 | 7.22° C | 98% | 1019.1 hPa | 1.78 mm | - | 91 W/m² | - |
| 1777462112 | 7.22° C | 98% | 1019.2 hPa | 1.78 mm | - | 89 W/m² | - |
| 1777461808 | 6.67° C | 98% | 1019.3 hPa | 1.78 mm | - | 71 W/m² | - |
| 1777461504 | 6.67° C | 98% | 1019.3 hPa | 1.78 mm | - | 61 W/m² | - |
| 1777461200 | 6.67° C | 98% | 1019.4 hPa | 1.27 mm | - | 59 W/m² | - |
| 1777460896 | 6.67° C | 98% | 1019.4 hPa | 1.27 mm | - | 50 W/m² | - |
| 1777460591 | 7.22° C | 98% | 1019.3 hPa | 1.27 mm | - | 46 W/m² | - |
| 1777460287 | 6.67° C | 98% | 1019.2 hPa | 1.78 mm | - | 48 W/m² | - |
| 1777459985 | 6.67° C | 98% | 1019.3 hPa | 1.78 mm | - | 44 W/m² | - |
| 1777459681 | 6.67° C | 98% | 1019.3 hPa | 1.78 mm | - | 35 W/m² | - |
| 1777459378 | 6.67° C | 98% | 1019.4 hPa | 1.27 mm | - | 31 W/m² | - |
* Rain latest hour (hover to see other rain measurements)
** Current wind speed in m/s (hover to see current wind gust speed)